Location: ???????????
(54.5822°N, 39.1075°E)
Time: 03:41:28
(UTC+00:00)

NOSS 2-1 (E) - Pass Details

Date: 19 May 2025
Orbit: 385 x 1749 km, 63.3° (Epoch: 07 May)

Event Time Altitude Azimuth Distance (km) Brightness Sun altitude
Exits shadow 22:21:20 - 263° (W) 1,904 5.9 -14.3°
Reaches altitude 10° 22:22:26 10° 270° (W) 1,464 5.3 -14.3°
Maximum altitude 22:25:14 30° 334° (NNW) 736 4.5 -14.1°
Drops below altitude 10° 22:27:59 10° 39° (NE) 1,438 6.6 -14.0°
Sets 22:30:13 0° 51° (NE) 2,353 7.5 -13.9°
